User: anonymous
Location: Caltech
(34.1382°N, 118.1253°W)
Time: 19:22:35
(UTC-07:00)
Language:

Cosmos 1937 Rocket - Orbit

View from above orbital plane
View from above orbital plane
View from above satellite
View from above satellite

Ground track
Ground track

The orbit data is extracted from the following two-line orbital elements,

1 19039U 88029B   14232.16542324 -.00000000  00000-0  85880-5 0  1029
2 19039 074.0490 039.5400 0022926 108.8943 017.0922 14.38019958382487
Epoch (UTC): 20 August 2014 03:58:12
Eccentricity: 0.0022926
inclination: 74.0490°
perigee height: 748 km
apogee height: 781 km
right ascension of ascending node: 39.5400°
argument of perigee: 108.8943°
revolutions per day: 14.38019958
mean anomaly at epoch: 17.0922°
orbit number at epoch: 38248

The dashed part of the orbit path shows where the satellite is in the earth's shadow,  

DLR